Overview Statistics Trail Chart Weather Telemetry Raw packets
 

This is the latest recevied weather packets stored in our database for station/object DL4MGC-10. If no packets are shown the sender has not sent any weather packets the latest 10 day(s).

<< 5 6 7 8 9 10 11 >>
Time Temp. Humidity Pressure Rain* Wind** Luminosity Snow
1788550054 26.11° C 57% 1015.5 hPa - - - -
1788549154 25.56° C 58% 1015.2 hPa - - - -
1788548254 26.67° C 58% 1015.1 hPa - - - -
1788547354 26.67° C 57% 1015 hPa - - - -
1788546454 27.22° C 55% 1014.8 hPa - - - -
1788545554 27.22° C 55% 1014.7 hPa - - - -
1788544654 27.78° C 55% 1014.5 hPa - - - -
1788543753 28.33° C 53% 1014.5 hPa - - - -
1788542853 28.89° C 53% 1014.4 hPa - - - -
1788541953 28.89° C 52% 1014.5 hPa - - - -
1788541053 29.44° C 52% 1014.4 hPa - - - -
1788540153 29.44° C 50% 1014.2 hPa - - - -
1788539253 30° C 49% 1014.2 hPa - - - -
1788538353 30.56° C 47% 1014.2 hPa - - - -
1788537453 30.56° C 47% 1014.3 hPa - - - -
1788536553 31.11° C 47% 1014.4 hPa - - - -
1788535653 30.56° C 48% 1014.5 hPa - - - -
1788534752 30.56° C 48% 1014.7 hPa - - - -
1788533852 30.56° C 48% 1014.9 hPa - - - -
1788532952 30.56° C 48% 1014.9 hPa - - - -
1788532052 31.11° C 48% 1015 hPa - - - -
1788531152 31.11° C 48% 1015.2 hPa - - - -
1788530252 30.56° C 48% 1015.5 hPa - - - -
1788529352 30.56° C 48% 1015.6 hPa - - - -
1788528452 30.56° C 48% 1015.8 hPa - - - -

* Rain since midnight (hover to see other rain measurements)
** Current wind speed in m/s (hover to see current wind gust speed)